User: anonymous   Login
Location: Oshawa
(43.9000°N, 78.8670°W)
Time: 05:00:07
(UTC-04:00)
Language:

Iridium 54 - Orbit

View from above orbital plane
View from above orbital plane
View from above satellite
View from above satellite

Ground track
Ground track

The orbit data is extracted from the following two-line orbital elements,

1 25171U 98010C   15116.49436238  .00000201  00000-0  64806-4 0  9998
2 25171 086.3938 317.5446 0002096 090.9743 269.1693 14.34225025899745
Epoch (UTC): 26 April 2015 11:51:52
Eccentricity: 0.0002096
inclination: 86.3938°
perigee height: 776 km
apogee height: 779 km
right ascension of ascending node: 317.5446°
argument of perigee: 90.9743°
revolutions per day: 14.34225025
mean anomaly at epoch: 269.1693°
orbit number at epoch: 89974

The dashed part of the orbit path shows where the satellite is in the earth's shadow,  

DLR